Temperature
17 17 17 17 17 17 18 18 18 18 18 18 18 18 18 18 18 18 18 18 18 18 18 18 18 18 18 18 18 18 18 18 18 18 18 18 18 18 18 18 18 18 18
17 17 17 17 17 17 17 18 18 18 18 18 18 18 18 18 18 18 18 18 18 18 18 18 18 18 18 18 18 18 18 18 18 18 18 18 18 18 18 18 18 18 18
17 17 17 17 17 17 17 17 18 18 18 18 18 18 18 18 18 18 18 18 18 18 18 18 18 18 18 18 18 18 18 18 18 18 18 18 18 18 18 18 18 18 18
17 17 17 17 17 17 17 17 17 18 17 17 17 18 17 17 17 17 17 17 17 17 17 17 17 17 17 17 17 18 18 18 18 17 17 17 17 17 18 17 18 18 18
18 17 17 17 17 17 17 17 17 17 17 17 17 17 17 17 17 17 17 17 17 17 17 17 17 17 17 17 17 17 17 17 17 17 17 17 17 17 17 17 17 17 17
18 17 17 17 17 17 17 17 17 17 17 17 17 17 17 17 17 17 17 17 17 17 17 17 17 17 17 17 17 17 17 17 17 17 17 17 17 17 17 17 17 17 17
17 17 17 17 17 17 17 17 17 17 17 17 17 17 17 17 17 17 17 17 17 17 17 17 17 17 17 17 17 17 17 17 17 17 17 17 17 17 17 17 17 17 17
18 17 17 17 17 17 17 17 17 17 17 17 17 17 17 17 17 17 17 17 17 17 17 17 17 17 17 17 17 17 17 17 17 17 17 17 17 17 17 17 17 17 17
18 17 17 17 17 17 17 17 17 17 17 17 17 17 17 17 17 17 16 16 17 16 16 16 16 16 16 16 16 16 17 17 17 16 16 16 16 16 16 17 17 17 17
17 18 17 17 17 17 17 17 17 17 17 17 17 17 16 16 16 16 16 16 16 16 16 16 16 16 16 16 16 16 16 16 16 16 16 16 16 16 16 16 16 16 16
17 17 17 17 17 17 17 17 17 17 17 17 17 17 16 16 16 16 16 16 16 16 16 16 16 16 16 16 16 16 16 16 16 16 16 16 16 16 16 16 16 16 16
18 17 17 17 17 17 17 17 17 17 17 16 16 16 16 16 16 16 16 16 16 16 16 16 16 16 16 16 16 16 16 16 16 16 16 16 16 16 16 16 16 16 16
18 18 17 17 17 17 17 17 17 17 16 16 16 16 16 16 16 16 16 16 16 16 16 16 16 16 16 16 16 16 16 16 16 16 16 16 16 16 16 16 16 16 16
18 18 18 17 17 17 17 17 17 16 16 16 16 16 16 16 16 16 16 16 16 16 16 16 16 16 16 16 16 16 16 16 15 15 15 15 15 15 15 15 15 15 15
18 18 17 17 17 17 17 17 16 16 16 16 16 16 16 16 16 16 16 16 16 16 16 16 16 16 16 16 15 15 15 15 15 15 15 15 15 15 15 15 15 15 15
18 18 17 17 17 17 17 17 16 16 16 16 16 16 15 16 16 16 15 16 16 16 15 15 15 15 15 15 15 15 15 15 15 15 15 15 15 15 15 15 15 15 15
18 18 17 17 17 17 17 16 16 16 16 16 16 15 15 15 15 15 15 15 15 15 15 15 15 15 15 15 15 15 15 15 15 15 15 15 15 15 15 15 14 14 14
18 18 17 17 17 17 17 16 16 16 16 16 16 15 15 15 15 15 15 15 15 15 15 15 15 15 15 15 15 15 15 14 14 14 14 15 15 14 14 14 14 14 14
18 18 18 17 17 17 17 16 16 16 16 16 15 15 15 15 15 15 15 15 15 15 15 15 14 14 15 15 15 14 14 14 14 14 14 14 14 14 14 14 14 14 14
18 18 17 17 17 17 17 16 16 16 16 15 15 15 15 15 15 15 15 15 14 14 14 14 14 14 14 14 14 14 14 14 14 14 14 14 14 14 14 14 14 14 14
18 17 17 17 17 17 17 16 16 16 16 15 15 15 15 15 15 14 14 14 14 14 14 14 14 14 14 14 14 14 14 14 14 14 14 14 14 13 13 13 13 13 13
17 17 17 17 17 17 17 16 16 16 15 15 15 15 15 15 14 14 14 14 14 14 14 14 14 13 13 13 13 13 13 13 14 14 13 13 13 13 13 13 13 13 13
17 17 17 17 17 16 16 16 16 16 15 15 15 15 14 14 14 14 14 14 14 14 14 13 13 13 13 13 13 13 13 13 13 13 13 13 13 13 13 13 13 13 13
17 17 16 16 16 16 16 16 16 15 15 15 15 14 14 14 14 14 14 14 14 13 13 13 13 13 13 13 13 13 13 13 13 12 13 13 13 13 13 13 13 13 13
16 16 16 16 16 16 16 16 15 15 15 15 14 14 14 14 14 14 14 13 13 13 13 13 13 13 13 13 13 13 13 13 13 12 12 13 13 13 13 12 12 12 12
16 16 16 16 16 16 15 15 15 15 15 15 14 14 14 14 14 14 13 13 13 13 13 13 13 13 13 13 12 12 12 12 12 12 12 12 12 13 12 12 12 12 12
Wind_Speed
0 2 7 9 10 10 11 11 11 12 13 13 13 14 14 14 14 14 14 13 13 12 11 11 10 11 11 11 11 10 10 10 10 10 10 11 11 11 12 11 10 9 10
4 5 8 9 10 11 11 11 12 12 13 13 14 14 14 14 14 14 14 14 14 14 13 13 11 11 12 11 10 10 10 10 10 10 10 10 11 11 11 11 10 9 10
6 6 8 9 10 11 11 11 12 12 13 13 13 13 14 14 14 14 14 14 14 14 14 14 14 13 12 11 10 10 10 10 10 10 9 8 9 10 10 10 10 10 9
7 7 8 10 10 10 10 11 12 12 12 12 13 13 13 14 14 14 14 14 14 14 14 14 14 12 11 10 10 10 10 10 10 10 8 7 7 9 9 9 9 9 9
7 7 9 10 10 10 10 11 11 11 11 12 12 13 13 13 13 13 13 13 13 13 13 13 12 11 10 10 10 10 10 10 10 10 8 7 7 9 9 9 9 9 9
6 7 9 10 10 10 11 11 11 11 11 11 12 12 12 12 12 13 12 12 12 12 12 11 11 11 10 10 10 10 10 10 10 8 8 7 7 8 9 9 9 9 9
6 7 9 10 10 10 10 10 10 10 10 11 11 11 11 11 11 11 11 11 11 11 11 10 10 10 10 10 10 10 10 10 9 8 7 7 8 9 9 9 9 8 9
7 6 8 10 10 9 9 10 10 10 10 10 10 11 10 10 10 10 10 10 10 10 10 9 9 10 9 9 10 10 10 9 8 7 6 6 8 9 9 8 8 8 8
7 6 6 7 9 9 9 9 9 10 10 9 9 10 10 10 9 9 9 9 9 9 9 9 9 9 8 8 9 9 9 10 8 6 6 6 7 8 8 8 8 8 8
6 5 5 6 7 7 7 8 8 9 9 8 8 8 8 8 9 8 8 8 8 8 8 7 8 8 7 8 8 9 10 9 9 7 6 6 7 7 7 7 7 7 7
5 3 4 5 5 6 6 7 7 7 7 6 6 7 7 6 6 6 6 7 7 7 7 7 7 8 7 7 8 8 8 7 7 6 6 7 7 7 7 7 6 6 7
5 4 4 4 4 4 5 5 4 5 5 5 5 5 5 5 5 5 5 6 6 7 7 8 8 8 7 6 6 7 6 6 6 5 5 6 6 7 7 6 6 6 6
7 6 5 5 5 4 4 4 3 4 4 4 4 4 5 5 5 5 5 6 6 7 7 7 7 7 6 5 4 5 5 5 5 5 5 7 7 7 7 7 7 6 6
6 6 6 6 5 4 4 3 3 3 3 2 3 5 5 3 3 3 3 4 5 5 5 5 4 5 6 5 5 5 5 5 5 5 5 6 7 7 7 7 7 6 6
5 5 6 6 6 5 4 3 3 2 2 3 4 4 5 3 2 2 3 3 4 5 4 4 4 5 5 5 5 5 4 5 5 4 5 6 7 7 7 7 7 7 6
5 5 5 6 6 6 4 3 3 3 3 3 3 4 5 5 3 2 2 2 3 4 4 4 4 4 3 4 4 4 4 5 5 5 5 6 7 7 7 7 7 7 7
5 5 5 6 6 6 5 4 3 3 4 3 3 4 5 5 4 3 2 2 3 4 5 5 5 4 4 4 4 3 3 4 4 4 4 4 5 6 7 7 7 7 6
5 5 4 6 6 5 5 4 3 4 4 3 3 4 5 6 6 4 3 2 3 4 4 3 3 3 3 3 2 2 2 3 3 4 4 5 4 4 5 6 6 5 5
6 5 4 5 5 5 4 4 4 4 4 3 4 4 4 5 6 5 3 2 4 3 3 3 3 2 2 2 1 2 2 1 1 3 3 3 3 4 3 3 4 4 5
5 5 5 4 4 4 4 4 3 3 2 3 3 3 4 5 5 5 3 3 3 3 3 3 2 2 1 1 2 2 2 2 1 1 1 2 2 3 3 3 3 3 4
4 4 4 4 3 4 3 3 3 2 1 1 1 3 4 4 4 4 3 2 2 2 1 1 2 2 2 2 2 3 3 3 2 1 1 1 1 1 3 3 3 3 3
4 3 4 4 3 3 3 3 3 3 2 2 1 2 3 4 4 4 3 2 2 2 2 2 2 1 1 2 1 1 2 3 3 2 1 1 1 1 1 2 2 2 2
4 4 4 3 3 2 3 3 3 3 2 2 1 1 0 3 3 3 3 2 2 2 1 1 1 2 0 1 1 2 2 2 2 3 2 1 1 1 0 1 1 1 1
4 4 4 3 3 3 3 4 5 3 2 2 1 1 1 1 2 2 2 2 2 1 2 1 1 1 1 1 1 1 1 3 2 1 3 2 2 1 1 1 1 1 1
4 3 3 3 3 3 4 4 4 3 2 1 1 1 0 0 1 1 1 1 2 1 2 1 1 1 1 1 1 1 0 0 1 2 2 3 2 2 1 1 1 2 2
2 2 3 3 3 3 3 3 3 3 3 3 2 2 1 1 1 0 0 1 2 2 2 2 2 2 2 1 1 1 2 1 1 2 2 2 2 2 2 1 1 2 2
Wind_Direction
90 106 91 89 85 82 80 79 78 75 72 71 72 73 73 75 78 77 76 76 75 73 71 72 83 93 91 87 84 83 82 80 76 73 71 72 72 75 79 81 82 83 86
147 119 99 95 90 85 82 81 80 78 75 74 74 74 75 76 78 77 76 75 72 70 67 68 76 91 90 86 82 79 78 76 74 72 71 72 71 74 77 80 81 84 86
127 116 105 100 94 89 86 84 82 79 77 76 76 76 76 76 77 76 75 75 73 71 70 71 78 84 85 82 80 77 74 72 71 71 72 69 73 76 77 78 81 83 85
127 121 111 105 99 94 90 88 85 82 79 77 77 79 80 78 78 77 76 75 74 72 73 74 76 79 82 79 78 78 77 73 73 72 71 67 75 80 79 78 80 84 85
119 120 117 110 106 101 96 93 90 86 83 80 80 82 82 81 80 79 77 75 74 74 74 74 74 75 76 76 74 78 78 74 75 70 70 68 74 82 81 79 80 85 85
115 118 116 111 109 105 101 97 94 91 87 83 82 83 84 83 82 81 79 78 76 75 74 72 69 69 70 71 71 74 76 77 76 74 72 71 74 81 82 82 82 82 84
124 118 118 114 112 110 107 103 100 94 89 86 84 85 85 85 86 84 82 80 77 75 72 69 66 66 68 70 72 75 77 77 78 76 74 75 79 83 82 81 80 81 84
131 120 120 119 115 112 110 106 104 99 92 88 85 85 87 88 87 86 83 79 77 74 70 67 64 63 66 68 73 76 77 78 78 77 71 72 81 82 81 81 79 80 82
118 112 113 119 116 114 112 109 106 103 97 91 87 84 84 83 84 86 83 80 74 72 68 64 59 57 60 67 72 74 80 79 74 71 73 69 78 81 79 78 78 77 80
122 122 116 116 115 113 113 112 110 107 104 97 90 84 82 80 77 80 78 75 72 69 65 60 55 50 55 64 71 79 83 76 71 65 66 72 78 80 79 79 77 77 78
133 142 131 124 123 124 123 118 114 107 102 96 88 82 81 75 72 73 73 70 66 63 56 49 47 45 48 56 69 78 83 80 76 71 67 72 73 77 79 79 78 80 81
157 160 150 139 138 133 124 113 101 92 93 95 91 84 84 80 71 67 63 56 53 53 46 44 42 43 46 53 64 77 91 89 85 82 78 74 72 74 77 79 79 79 83
163 159 157 150 140 130 116 116 99 92 96 94 93 90 88 78 66 59 55 48 48 47 41 39 42 43 49 59 70 79 91 95 89 85 83 80 79 77 79 81 79 77 83
154 160 158 150 146 137 130 120 112 103 96 94 100 95 91 81 63 55 52 46 45 44 43 39 44 44 50 62 79 83 84 89 87 85 87 81 81 80 78 79 76 75 82
147 152 156 150 146 139 127 124 117 109 112 118 110 106 107 98 87 64 49 49 45 49 51 46 46 47 47 55 73 87 89 93 88 87 84 81 80 82 82 79 74 74 76
144 147 146 140 138 131 132 132 127 117 118 114 108 113 118 111 97 80 61 49 46 55 60 64 57 52 43 54 55 69 90 96 98 89 84 80 76 77 79 78 79 79 77
149 150 145 144 137 132 131 135 129 119 110 96 105 112 117 115 107 95 83 54 47 60 61 61 59 59 46 46 41 47 74 88 99 97 93 84 77 73 72 72 73 74 76
135 131 143 143 137 136 133 134 127 119 106 98 105 106 111 113 112 101 86 66 68 75 68 55 44 44 42 38 30 25 48 75 90 96 93 88 86 81 76 74 71 71 73
137 133 125 127 135 141 138 132 122 113 101 98 94 95 107 108 112 106 94 77 83 72 53 56 41 47 49 32 25 25 24 44 74 100 87 92 98 90 87 81 71 67 68
125 120 117 115 129 135 125 112 97 91 87 83 86 94 107 110 113 106 94 81 81 69 49 48 45 32 41 19 35 26 1 2 26 74 113 106 105 98 93 87 78 66 57
107 108 113 116 120 127 131 135 130 135 130 114 95 110 114 112 115 109 93 89 81 89 84 74 60 42 21 19 54 19 356 359 17 350 45 91 80 92 97 93 88 85 66
123 128 128 137 142 147 153 163 157 154 154 152 118 106 125 126 131 128 114 116 106 100 78 60 61 63 17 32 94 80 360 346 355 0 5 62 37 71 98 114 105 99 83
140 156 156 163 151 142 138 118 99 80 61 49 43 41 93 139 136 131 132 131 139 139 155 159 121 120 143 328 82 137 148 236 301 331 351 1 349 30 29 150 142 128 127
176 169 164 162 146 135 132 133 138 142 156 201 196 208 293 106 127 135 137 141 154 162 169 187 158 164 151 244 297 286 199 179 173 296 323 331 329 282 243 200 150 160 175
172 160 159 148 138 133 131 144 148 147 169 163 145 162 239 321 64 106 137 150 173 182 193 187 168 185 178 186 209 229 269 342 154 172 265 307 328 305 267 234 184 179 195
143 135 138 130 127 130 137 144 154 164 160 141 162 193 222 255 287 321 92 167 190 200 212 208 198 202 205 203 209 194 178 187 202 181 217 256 275 289 292 258 217 205 198
Height
1527 1526 1526 1525 1524 1524 1523 1522 1522 1521 1521 1521 1520 1519 1519 1518 1518 1517 1517 1517 1516 1516 1514 1512 1511 1513 1515 1517 1518 1519 1519 1519 1518 1518 1517 1517 1515 1514 1513 1513 1514 1514 1514
1528 1527 1527 1526 1526 1525 1524 1524 1523 1523 1522 1522 1521 1521 1520 1519 1519 1519 1519 1518 1517 1517 1515 1512 1510 1512 1516 1518 1519 1520 1520 1520 1519 1519 1519 1518 1517 1517 1516 1515 1515 1515 1515
1529 1528 1528 1527 1527 1526 1526 1525 1525 1524 1524 1523 1523 1522 1522 1521 1521 1521 1520 1520 1519 1518 1517 1514 1512 1514 1517 1519 1520 1521 1521 1521 1520 1520 1520 1519 1519 1518 1518 1517 1517 1517 1516
1530 1530 1529 1529 1528 1528 1527 1527 1526 1526 1525 1525 1524 1524 1524 1523 1523 1522 1522 1521 1521 1520 1519 1519 1518 1518 1520 1521 1521 1522 1522 1522 1521 1521 1521 1520 1520 1520 1519 1519 1518 1518 1517
1531 1531 1530 1530 1530 1529 1529 1528 1528 1527 1527 1526 1526 1526 1525 1525 1525 1524 1524 1523 1523 1522 1522 1521 1521 1521 1522 1523 1523 1523 1523 1523 1522 1522 1522 1521 1521 1521 1520 1520 1520 1519 1519
1532 1532 1532 1531 1531 1531 1530 1530 1530 1529 1529 1528 1528 1527 1527 1526 1526 1526 1526 1525 1525 1524 1524 1523 1523 1523 1524 1524 1524 1524 1524 1524 1523 1523 1523 1522 1522 1521 1521 1521 1521 1520 1520
1533 1533 1533 1533 1532 1532 1532 1532 1531 1531 1530 1530 1529 1529 1529 1528 1528 1527 1527 1527 1526 1526 1525 1525 1525 1525 1525 1525 1525 1525 1525 1525 1524 1524 1523 1523 1523 1522 1522 1522 1521 1521 1521
1534 1534 1534 1534 1534 1533 1533 1533 1533 1532 1532 1531 1531 1530 1530 1530 1529 1529 1529 1528 1528 1527 1527 1527 1527 1526 1526 1526 1526 1526 1526 1526 1525 1525 1524 1524 1524 1523 1523 1523 1522 1522 1521
1535 1535 1535 1535 1535 1535 1535 1534 1534 1534 1533 1533 1533 1532 1532 1531 1531 1530 1530 1530 1529 1529 1529 1528 1528 1528 1527 1527 1527 1527 1527 1526 1526 1525 1525 1524 1524 1524 1523 1523 1523 1522 1522
1536 1536 1536 1536 1536 1536 1536 1536 1535 1535 1535 1534 1534 1534 1533 1533 1532 1532 1531 1531 1531 1530 1530 1530 1529 1529 1529 1528 1528 1528 1528 1527 1527 1526 1526 1525 1525 1524 1524 1523 1523 1523 1522
1537 1537 1537 1537 1537 1537 1537 1537 1536 1536 1536 1535 1535 1535 1534 1534 1534 1533 1533 1532 1532 1532 1531 1531 1531 1530 1530 1529 1529 1529 1528 1528 1528 1527 1526 1526 1525 1524 1523 1523 1523 1523 1523
1536 1537 1537 1538 1538 1538 1537 1537 1537 1537 1537 1536 1536 1536 1535 1535 1535 1535 1534 1534 1533 1533 1532 1532 1532 1531 1531 1530 1530 1529 1529 1529 1528 1527 1527 1526 1525 1524 1523 1523 1523 1523 1523
1536 1537 1538 1538 1538 1538 1538 1538 1538 1538 1537 1537 1537 1536 1536 1536 1536 1535 1535 1535 1534 1534 1533 1533 1532 1532 1531 1531 1530 1530 1529 1529 1529 1528 1527 1526 1525 1524 1523 1523 1523 1523 1523
1536 1537 1538 1538 1538 1538 1538 1539 1538 1538 1538 1538 1537 1537 1537 1537 1536 1536 1536 1535 1535 1534 1534 1533 1533 1532 1532 1531 1531 1530 1530 1529 1529 1528 1528 1527 1526 1524 1524 1523 1523 1523 1523
1536 1537 1538 1538 1538 1539 1539 1539 1539 1539 1539 1538 1538 1538 1538 1537 1537 1537 1536 1536 1535 1535 1534 1534 1533 1532 1532 1532 1531 1531 1530 1530 1529 1529 1528 1527 1526 1525 1524 1524 1523 1523 1523
1536 1537 1537 1538 1538 1538 1539 1539 1539 1539 1539 1539 1539 1539 1538 1538 1538 1537 1536 1536 1535 1535 1534 1534 1533 1533 1532 1532 1531 1531 1530 1530 1530 1529 1528 1528 1527 1526 1525 1525 1524 1524 1523
1535 1536 1537 1538 1538 1538 1539 1539 1539 1539 1539 1539 1539 1539 1539 1538 1538 1537 1537 1536 1535 1535 1534 1534 1533 1533 1532 1532 1531 1531 1531 1530 1530 1529 1529 1528 1527 1527 1526 1525 1524 1524 1524
1534 1535 1536 1537 1538 1538 1538 1539 1539 1539 1539 1539 1539 1539 1539 1538 1538 1537 1537 1536 1535 1535 1534 1533 1533 1532 1532 1531 1531 1531 1531 1530 1530 1529 1529 1528 1527 1527 1526 1526 1525 1524 1524
1534 1534 1535 1536 1537 1537 1538 1538 1539 1539 1539 1539 1539 1539 1539 1538 1538 1537 1537 1536 1535 1535 1534 1533 1532 1532 1531 1531 1531 1530 1530 1530 1530 1529 1529 1528 1527 1527 1526 1526 1525 1525 1524
1533 1534 1534 1535 1536 1537 1537 1538 1538 1539 1539 1539 1539 1539 1538 1538 1538 1537 1537 1536 1535 1534 1533 1533 1532 1531 1531 1531 1530 1530 1530 1529 1529 1529 1528 1528 1527 1527 1526 1526 1525 1524 1524
1532 1533 1533 1534 1535 1535 1536 1536 1536 1537 1538 1538 1538 1538 1538 1538 1537 1537 1536 1536 1535 1534 1533 1532 1531 1531 1530 1530 1529 1529 1529 1529 1528 1528 1528 1527 1527 1526 1526 1525 1525 1524 1524
1530 1531 1532 1533 1533 1534 1534 1535 1536 1536 1537 1537 1538 1538 1538 1537 1536 1536 1536 1535 1534 1533 1532 1531 1531 1530 1529 1529 1529 1528 1528 1529 1527 1527 1527 1527 1526 1526 1525 1525 1524 1524 1523
1529 1530 1530 1531 1532 1533 1533 1534 1535 1536 1536 1537 1537 1537 1537 1536 1536 1535 1535 1534 1533 1532 1531 1530 1530 1529 1528 1528 1528 1529 1528 1527 1526 1526 1526 1525 1525 1525 1524 1524 1524 1523 1523
1528 1529 1529 1530 1531 1532 1532 1533 1533 1533 1534 1534 1535 1535 1535 1535 1535 1534 1534 1533 1532 1531 1530 1530 1529 1528 1528 1527 1527 1527 1528 1527 1526 1525 1524 1524 1524 1523 1523 1523 1522 1522 1522
1527 1528 1529 1529 1530 1530 1531 1532 1532 1533 1533 1533 1534 1534 1534 1533 1533 1533 1532 1532 1531 1530 1529 1529 1528 1527 1527 1526 1525 1525 1525 1525 1524 1524 1522 1522 1521 1522 1521 1521 1521 1521 1520
1526 1527 1527 1528 1528 1529 1530 1530 1531 1531 1531 1532 1532 1532 1532 1532 1531 1531 1531 1530 1529 1529 1528 1527 1526 1526 1525 1524 1524 1523 1523 1523 1522 1522 1521 1520 1519 1519 1520 1519 1519 1519 1519